Precipitable_Water
0.49 0.40 0.32 0.33 0.35 0.33 0.29 0.26 0.26 0.32 0.39 0.38 0.35 0.34 0.34 0.36 0.35 0.33 0.39 0.44 0.49 0.52 0.57 0.60 0.62 0.62 0.62 0.65 0.65 0.65 0.57 0.52 0.52 0.51 0.51 0.50 0.49 0.51 0.52 0.53 0.55 0.53 0.50 0.50
0.37 0.32 0.43 0.48 0.42 0.37 0.33 0.27 0.26 0.32 0.36 0.35 0.37 0.34 0.38 0.39 0.37 0.35 0.37 0.40 0.45 0.51 0.54 0.56 0.58 0.58 0.60 0.61 0.63 0.64 0.63 0.58 0.53 0.52 0.53 0.53 0.52 0.55 0.56 0.56 0.56 0.54 0.53 0.53
0.29 0.34 0.39 0.37 0.37 0.36 0.35 0.34 0.32 0.30 0.34 0.34 0.35 0.31 0.36 0.41 0.43 0.39 0.40 0.41 0.45 0.49 0.51 0.55 0.57 0.59 0.60 0.59 0.61 0.62 0.64 0.62 0.58 0.54 0.53 0.53 0.55 0.55 0.54 0.54 0.53 0.55 0.55 0.54
0.28 0.34 0.34 0.34 0.31 0.36 0.28 0.40 0.37 0.34 0.33 0.25 0.35 0.20 0.30 0.36 0.39 0.43 0.44 0.45 0.46 0.49 0.53 0.54 0.55 0.57 0.59 0.60 0.63 0.63 0.66 0.64 0.61 0.55 0.51 0.51 0.50 0.48 0.52 0.52 0.53 0.54 0.56 0.56
0.23 0.28 0.31 0.30 0.32 0.35 0.28 0.36 0.33 0.33 0.33 0.31 0.28 0.28 0.24 0.31 0.29 0.33 0.38 0.43 0.45 0.48 0.50 0.51 0.53 0.56 0.59 0.62 0.64 0.64 0.66 0.65 0.63 0.60 0.54 0.51 0.50 0.51 0.52 0.50 0.49 0.51 0.54 0.55
0.27 0.31 0.28 0.28 0.32 0.34 0.36 0.34 0.33 0.33 0.32 0.27 0.27 0.29 0.24 0.28 0.31 0.31 0.29 0.30 0.36 0.41 0.47 0.51 0.56 0.58 0.60 0.64 0.66 0.66 0.64 0.64 0.63 0.58 0.53 0.50 0.47 0.46 0.45 0.45 0.46 0.50 0.53 0.54
0.27 0.26 0.29 0.31 0.25 0.28 0.32 0.31 0.25 0.23 0.25 0.23 0.31 0.30 0.27 0.32 0.34 0.31 0.30 0.31 0.34 0.39 0.44 0.49 0.53 0.58 0.61 0.64 0.67 0.68 0.66 0.62 0.58 0.54 0.52 0.50 0.48 0.47 0.46 0.47 0.47 0.49 0.52 0.54
0.29 0.21 0.29 0.38 0.29 0.22 0.24 0.29 0.26 0.20 0.21 0.23 0.28 0.25 0.27 0.36 0.38 0.40 0.42 0.42 0.45 0.48 0.51 0.54 0.58 0.61 0.64 0.67 0.69 0.69 0.64 0.60 0.56 0.54 0.54 0.55 0.53 0.53 0.53 0.52 0.53 0.53 0.55 0.56
0.33 0.29 0.40 0.41 0.43 0.40 0.25 0.22 0.32 0.30 0.29 0.25 0.25 0.27 0.31 0.34 0.36 0.41 0.43 0.46 0.47 0.52 0.55 0.57 0.63 0.66 0.67 0.68 0.68 0.66 0.61 0.57 0.56 0.57 0.57 0.55 0.55 0.53 0.52 0.54 0.56 0.56 0.56 0.56
0.38 0.27 0.37 0.38 0.37 0.44 0.38 0.34 0.25 0.29 0.22 0.20 0.22 0.23 0.24 0.31 0.35 0.43 0.43 0.45 0.49 0.54 0.57 0.61 0.64 0.68 0.69 0.67 0.67 0.61 0.58 0.58 0.58 0.58 0.56 0.55 0.55 0.54 0.56 0.57 0.55 0.54 0.53 0.52
0.41 0.35 0.30 0.36 0.31 0.29 0.37 0.39 0.39 0.36 0.31 0.23 0.20 0.26 0.47 0.47 0.49 0.49 0.51 0.51 0.53 0.56 0.59 0.63 0.67 0.69 0.69 0.65 0.64 0.63 0.61 0.60 0.58 0.56 0.53 0.52 0.52 0.55 0.56 0.54 0.53 0.52 0.50 0.48
0.37 0.33 0.24 0.28 0.33 0.41 0.41 0.39 0.43 0.33 0.30 0.34 0.29 0.29 0.55 0.54 0.58 0.61 0.60 0.59 0.60 0.62 0.63 0.64 0.69 0.70 0.66 0.64 0.62 0.59 0.58 0.57 0.56 0.54 0.51 0.51 0.54 0.53 0.53 0.51 0.50 0.48 0.44 0.42
0.34 0.31 0.21 0.21 0.30 0.38 0.37 0.41 0.42 0.39 0.37 0.30 0.26 0.31 0.56 0.51 0.52 0.60 0.62 0.63 0.66 0.64 0.64 0.66 0.66 0.64 0.63 0.64 0.61 0.57 0.57 0.54 0.53 0.51 0.51 0.52 0.51 0.52 0.50 0.48 0.47 0.43 0.39 0.37
0.38 0.29 0.24 0.18 0.22 0.28 0.25 0.28 0.32 0.31 0.24 0.24 0.27 0.28 0.33 0.36 0.37 0.47 0.51 0.56 0.56 0.60 0.62 0.58 0.58 0.60 0.56 0.56 0.55 0.54 0.52 0.51 0.49 0.50 0.50 0.51 0.53 0.50 0.47 0.45 0.41 0.38 0.35 0.29
0.34 0.22 0.23 0.23 0.24 0.27 0.26 0.24 0.23 0.22 0.27 0.24 0.25 0.24 0.26 0.28 0.31 0.33 0.37 0.43 0.46 0.47 0.51 0.51 0.51 0.52 0.54 0.55 0.56 0.54 0.52 0.50 0.50 0.49 0.50 0.52 0.50 0.48 0.44 0.40 0.36 0.32 0.28 0.24
0.36 0.23 0.25 0.21 0.20 0.20 0.18 0.18 0.19 0.21 0.20 0.21 0.20 0.20 0.24 0.25 0.29 0.28 0.30 0.31 0.34 0.39 0.41 0.42 0.45 0.47 0.49 0.55 0.59 0.57 0.51 0.49 0.51 0.51 0.51 0.50 0.46 0.43 0.39 0.33 0.29 0.24 0.21 0.20
0.31 0.27 0.24 0.18 0.22 0.21 0.17 0.15 0.17 0.18 0.22 0.22 0.18 0.20 0.28 0.25 0.25 0.28 0.31 0.30 0.30 0.35 0.39 0.40 0.42 0.45 0.53 0.59 0.60 0.61 0.55 0.55 0.52 0.50 0.50 0.46 0.43 0.37 0.32 0.26 0.21 0.19 0.18 0.17
0.29 0.27 0.26 0.20 0.25 0.15 0.17 0.23 0.23 0.21 0.22 0.22 0.20 0.19 0.22 0.27 0.32 0.37 0.40 0.41 0.37 0.37 0.41 0.47 0.49 0.53 0.58 0.62 0.62 0.60 0.62 0.55 0.51 0.50 0.46 0.42 0.36 0.30 0.24 0.19 0.17 0.17 0.16 0.15
0.29 0.26 0.21 0.18 0.18 0.21 0.18 0.20 0.20 0.18 0.16 0.20 0.20 0.19 0.27 0.31 0.33 0.32 0.39 0.41 0.42 0.45 0.49 0.54 0.61 0.61 0.64 0.60 0.61 0.59 0.57 0.54 0.50 0.47 0.41 0.35 0.29 0.21 0.18 0.16 0.16 0.15 0.14 0.13
0.20 0.24 0.19 0.18 0.15 0.13 0.13 0.21 0.24 0.23 0.12 0.21 0.28 0.27 0.28 0.31 0.22 0.26 0.38 0.42 0.44 0.47 0.49 0.53 0.59 0.65 0.60 0.59 0.63 0.57 0.54 0.49 0.45 0.40 0.34 0.28 0.22 0.18 0.16 0.15 0.14 0.14 0.12 0.10
0.14 0.16 0.15 0.15 0.16 0.17 0.21 0.25 0.28 0.13 0.12 0.27 0.30 0.31 0.33 0.30 0.32 0.35 0.42 0.44 0.47 0.49 0.52 0.58 0.58 0.57 0.58 0.59 0.57 0.52 0.48 0.44 0.40 0.35 0.29 0.22 0.19 0.17 0.16 0.15 0.14 0.12 0.11 0.10
0.10 0.12 0.14 0.20 0.17 0.14 0.29 0.26 0.20 0.27 0.31 0.34 0.35 0.36 0.35 0.40 0.42 0.45 0.43 0.43 0.43 0.42 0.47 0.50 0.48 0.52 0.55 0.51 0.47 0.45 0.42 0.39 0.35 0.28 0.22 0.19 0.18 0.17 0.17 0.14 0.12 0.12 0.12 0.11
0.11 0.13 0.11 0.14 0.14 0.23 0.24 0.28 0.32 0.35 0.34 0.34 0.36 0.39 0.43 0.41 0.46 0.50 0.47 0.46 0.45 0.43 0.44 0.45 0.46 0.45 0.42 0.43 0.44 0.39 0.36 0.34 0.27 0.21 0.19 0.18 0.17 0.18 0.16 0.14 0.13 0.13 0.14 0.13
0.16 0.18 0.12 0.12 0.13 0.13 0.14 0.18 0.27 0.32 0.31 0.33 0.39 0.42 0.44 0.44 0.47 0.46 0.43 0.41 0.40 0.41 0.42 0.44 0.43 0.41 0.40 0.43 0.40 0.38 0.34 0.28 0.21 0.18 0.18 0.17 0.17 0.16 0.16 0.16 0.15 0.15 0.15 0.14
0.16 0.16 0.13 0.10 0.12 0.13 0.15 0.21 0.23 0.27 0.30 0.31 0.40 0.45 0.45 0.47 0.45 0.43 0.41 0.40 0.38 0.39 0.40 0.41 0.42 0.39 0.40 0.41 0.39 0.33 0.27 0.21 0.19 0.17 0.17 0.17 0.17 0.16 0.16 0.16 0.16 0.16 0.17 0.16
0.19 0.15 0.12 0.08 0.12 0.13 0.14 0.17 0.24 0.29 0.29 0.31 0.37 0.40 0.48 0.46 0.42 0.43 0.41 0.41 0.41 0.41 0.43 0.44 0.44 0.43 0.40 0.35 0.30 0.26 0.21 0.20 0.18 0.16 0.16 0.16 0.16 0.16 0.16 0.15 0.15 0.18 0.18 0.19
Wind_Speed
24 23 26 26 24 25 26 28 28 27 25 24 25 24 24 21 23 24 24 26 27 27 25 24 22 21 20 19 20 20 21 22 23 22 22 22 22 22 21 20 20 20 21 21
27 33 28 28 28 28 29 31 32 31 28 27 27 27 26 25 25 26 25 26 27 25 26 25 24 23 23 22 21 20 20 21 23 23 23 24 23 22 21 22 21 22 22 22
32 29 26 30 31 31 33 32 32 33 28 30 26 33 28 27 27 27 28 28 27 29 30 29 27 25 24 22 21 20 20 21 22 23 23 23 22 22 22 22 23 23 22 23
36 32 34 35 33 29 37 30 35 36 29 29 25 34 29 27 29 29 29 28 30 32 33 32 29 27 25 23 22 21 20 21 21 22 23 23 23 23 23 23 23 24 24 26
34 30 26 30 31 29 35 30 32 31 29 26 29 26 26 24 27 30 31 30 32 33 35 35 32 29 26 24 22 21 21 21 22 22 23 23 23 23 24 24 25 25 25 26
38 37 36 31 30 29 30 31 29 28 25 26 31 26 36 29 29 31 33 35 33 33 33 33 32 30 27 24 22 21 21 21 22 22 22 22 23 23 24 25 25 26 27 28
31 33 33 34 38 37 29 27 25 27 26 30 23 24 34 29 32 33 34 33 30 30 32 32 32 30 28 25 23 22 21 21 21 20 21 22 22 23 24 25 26 27 29 30
25 25 20 21 27 30 33 29 27 26 27 29 25 27 27 22 22 23 22 21 21 23 26 27 29 28 26 25 24 23 22 21 20 20 21 22 22 22 23 24 26 28 30 31
22 27 25 24 22 22 26 30 28 28 26 23 26 26 27 23 21 20 18 18 17 20 22 24 25 24 24 23 23 23 21 20 20 20 21 21 21 21 21 23 25 28 30 31
22 25 23 23 23 19 18 22 24 24 22 24 25 24 25 21 22 21 20 18 17 18 20 21 23 23 22 22 21 21 20 19 19 20 20 20 19 20 22 25 27 28 28 29
20 22 24 22 19 21 20 18 18 19 22 23 22 18 13 12 16 16 16 17 18 20 21 21 22 23 23 22 22 22 21 19 19 19 19 19 20 21 23 25 25 26 27 28
22 22 24 25 24 19 17 21 19 20 15 18 23 20 17 12 10 10 11 13 17 19 20 21 21 22 22 21 20 19 19 18 19 19 19 19 20 21 23 25 26 26 26 27
22 19 20 21 18 16 15 13 14 16 16 12 10 8 12 9 10 11 14 12 13 16 17 19 20 20 21 22 20 19 19 19 19 19 19 20 21 22 23 24 24 25 25 26
23 23 23 25 20 18 19 21 21 20 17 18 20 22 17 16 17 14 14 13 15 18 19 18 20 22 21 21 20 19 18 18 19 19 19 20 21 22 22 23 23 24 25 25
23 25 25 29 28 27 27 27 26 26 28 24 29 29 28 20 21 21 22 23 24 22 21 21 19 20 21 20 20 19 18 18 19 19 19 20 21 21 21 22 23 23 23 24
23 23 21 27 29 28 29 29 29 28 28 29 29 29 28 26 26 23 26 27 28 29 29 28 27 27 24 22 22 22 20 19 18 19 19 20 19 19 20 21 21 21 22 23
22 21 20 23 26 24 26 29 26 24 24 24 24 27 26 27 25 23 23 28 30 29 30 30 30 28 27 23 21 21 20 19 18 18 18 18 18 19 19 19 18 20 21 21
22 20 20 21 17 18 22 21 21 21 21 21 23 27 29 25 23 21 22 22 25 24 25 27 28 28 26 24 21 19 18 17 17 17 17 17 17 17 17 16 18 19 19 18
21 19 20 19 21 24 25 19 18 20 24 25 26 26 23 23 22 23 22 20 18 18 18 19 22 24 23 20 20 19 18 15 15 15 15 15 16 15 15 16 17 17 15 14
21 22 20 18 21 21 23 18 20 21 25 21 21 22 23 24 23 24 21 19 18 17 18 19 18 18 18 18 18 18 17 16 15 14 14 14 13 14 14 15 15 13 12 12
14 16 22 22 21 22 20 20 20 19 23 19 20 23 23 23 24 23 19 17 16 15 15 17 19 22 21 18 18 17 17 16 14 14 13 12 12 13 14 13 12 10 10 11
15 13 15 15 16 16 13 15 12 15 18 20 22 22 22 19 16 16 17 15 16 14 15 17 16 17 20 20 18 17 16 15 15 14 13 12 12 12 12 10 8 8 9 10
16 16 15 18 20 22 21 18 17 15 17 17 19 20 17 16 17 15 15 15 15 16 15 18 16 15 16 18 18 17 16 14 14 13 12 12 11 11 9 7 7 8 9 11
15 15 15 15 19 20 22 23 22 19 19 19 18 15 16 18 18 19 16 15 15 16 16 17 17 16 15 16 17 17 15 13 13 12 12 11 10 9 8 7 8 9 10 12
20 18 18 20 22 25 26 23 22 23 21 20 18 17 15 14 13 14 14 14 14 15 16 17 16 16 15 14 14 15 14 13 13 12 11 11 10 9 8 8 9 10 12 14
25 25 24 28 27 28 27 26 24 23 23 22 21 20 19 17 16 15 15 15 15 14 14 14 15 16 15 14 13 14 14 14 13 12 11 10 9 9 9 9 10 12 14 16
Wind_Direction
265 259 256 257 258 263 267 269 270 271 268 273 269 269 270 268 255 251 251 251 253 252 248 245 243 244 247 251 253 257 257 259 258 260 261 264 266 269 273 278 282 286 289 292
266 262 263 262 260 260 263 265 268 271 270 270 267 267 266 264 261 255 254 254 251 250 245 244 244 246 247 249 253 257 259 260 258 258 261 263 265 267 271 277 282 286 288 290
262 264 263 259 260 262 262 263 268 267 270 268 269 269 261 262 263 260 257 256 250 243 241 243 243 245 246 248 251 254 258 262 260 257 259 261 262 267 271 277 282 285 287 291
266 263 262 263 263 260 265 264 268 268 266 267 262 270 262 261 262 261 259 257 253 248 243 241 242 242 243 247 250 253 256 261 262 259 258 258 262 267 273 276 280 284 288 291
263 270 265 262 261 259 268 269 266 267 262 264 262 264 268 262 263 263 264 257 252 248 241 241 241 241 243 242 246 250 256 261 263 263 260 259 264 268 271 276 281 285 288 292
267 264 262 264 264 261 268 270 266 262 259 257 261 256 268 263 264 266 263 262 254 247 243 241 238 238 240 243 245 251 255 261 264 262 260 261 263 267 272 277 281 284 287 291
272 267 265 259 260 260 257 262 267 259 256 260 257 258 264 268 269 269 267 265 254 242 237 235 232 235 237 240 245 252 256 261 264 261 262 263 265 269 273 277 281 285 288 291
274 276 271 274 256 260 250 246 252 261 257 263 264 261 268 271 273 269 269 261 249 238 235 230 227 229 232 239 244 249 256 261 259 259 262 266 269 272 276 279 283 287 289 291
268 266 269 278 270 268 257 245 252 256 258 261 261 265 269 273 274 265 258 248 237 231 227 222 220 224 230 238 242 251 255 258 259 262 264 269 271 274 278 282 287 290 291 292
260 270 269 267 270 265 265 258 248 251 250 254 259 265 266 271 261 256 250 245 238 229 219 221 219 226 233 239 245 249 254 256 260 263 266 268 273 277 282 288 292 293 294 295
259 257 263 272 265 259 264 264 260 253 248 251 259 255 276 271 267 244 239 233 229 223 221 222 229 235 238 240 244 250 252 255 260 264 265 271 276 282 286 291 293 294 296 297
261 261 261 258 264 263 253 254 252 251 253 255 257 252 255 257 267 244 233 239 232 234 230 236 238 236 236 241 244 247 250 255 259 261 265 273 279 284 289 292 295 296 298 299
254 258 265 264 255 251 247 241 239 240 253 240 263 233 214 235 250 254 245 236 234 228 238 239 238 237 240 241 245 247 255 258 259 264 269 276 282 288 290 294 295 298 300 302
252 250 247 253 252 256 252 249 251 247 251 255 247 259 253 256 260 249 235 236 239 236 240 242 246 240 243 244 244 251 257 260 262 266 272 280 285 288 291 294 297 299 301 304
249 252 254 257 258 257 256 256 255 252 259 262 260 261 261 271 264 258 263 259 251 250 242 245 242 243 241 244 246 248 256 260 263 268 274 281 286 288 291 295 298 300 303 306
255 256 261 260 260 260 262 261 261 261 259 260 264 263 268 271 271 266 261 260 256 256 250 249 249 246 246 246 243 246 258 262 264 268 275 281 285 288 291 295 299 301 305 308
252 255 261 264 261 261 262 255 256 258 257 262 266 270 272 276 276 275 271 263 259 262 255 251 246 243 243 245 246 249 254 259 263 269 274 280 283 288 292 296 298 303 307 310
248 253 253 260 265 248 256 256 259 257 259 265 273 275 278 274 273 278 283 274 271 263 254 246 242 241 239 239 249 244 248 252 261 266 271 276 282 288 292 295 300 305 308 310
244 246 254 258 253 261 262 258 263 270 268 275 275 274 272 275 272 274 281 278 272 262 252 245 240 234 228 232 239 243 245 250 255 261 268 272 280 286 291 297 302 305 307 310
246 250 252 251 254 257 262 262 261 275 275 273 279 273 268 270 273 273 273 266 264 256 250 241 232 212 224 232 236 239 241 247 254 260 266 272 276 283 292 298 302 301 306 313
251 257 249 251 255 259 262 270 275 264 267 268 269 273 273 266 266 263 256 255 252 247 240 235 230 233 235 235 236 238 240 247 252 258 267 267 274 285 293 297 296 297 305 314
251 252 250 246 245 255 253 272 267 265 274 267 268 269 270 267 260 251 243 247 245 243 238 232 229 230 232 232 232 236 242 245 249 255 259 262 273 284 290 289 290 297 307 317
252 252 259 245 248 252 266 263 267 274 274 275 273 265 259 256 248 241 245 247 244 239 239 229 229 232 231 231 230 237 239 241 246 246 252 258 269 278 277 275 286 298 308 318
254 256 264 262 255 255 262 267 262 266 273 278 271 264 259 256 243 241 245 247 245 241 238 233 230 233 232 230 229 230 230 233 235 242 248 256 261 266 263 271 288 299 308 315
248 257 264 268 270 272 265 259 262 263 269 272 266 261 254 247 240 234 242 245 246 242 237 233 233 228 224 221 219 222 225 231 236 240 247 249 252 251 254 274 289 302 309 316
252 257 265 269 272 271 264 257 258 260 266 265 263 260 254 244 239 245 243 242 241 233 228 225 219 212 213 212 222 223 228 230 233 238 242 242 243 246 258 278 295 302 309 314